Tracking 22993 objects as of 9-May-2021
HD Live streaming from Space Station
objects crossing your sky now

THOR BURNER 2 R/B

Track THOR BURNER 2 R/B now!
10-day predictions


NORAD ID: 4954
Int'l Code: 1971-012B
Perigee: 743.8 km
Apogee: 798.6 km
Inclination: 98.6 °
Period: 100.1 minutes
Semi major axis: 7142 km
RCS: 1.7004 m2 (large)
Launch date: February 17, 1971
Source: United States (US)
Launch site: AIR FORCE WESTERN TEST RANGE (AFWTR)

Note: This is a ROCKET BODY
aabbcc
Your satellite tracking list
Your tracking list is empty




NASA's NSSDC Master Catalog

Two Line Element Set (TLE):
1 04954U 71012B   21129.56119401  .00000024  00000-0  22224-4 0  9997
2 04954  98.5663 346.3499 0038323  55.5803 304.8997 14.38311771627724
Source of the keplerian elements: AFSPC